Temp
18 17 16 15 13 13 15 15 14 14 14 14 14 14 13 13 13 13 13 12 12 12 12 12 12 12 12 12 11 11 11 10 10
18 18 16 15 14 13 16 15 15 14 14 14 14 14 14 13 13 13 13 13 13 13 12 12 12 12 12 12 12 11 11 11 11
18 18 17 16 15 14 16 16 15 15 14 14 15 14 14 14 14 13 13 13 13 13 13 12 12 13 12 13 12 11 11 11 11
18 18 18 17 15 15 16 16 16 16 15 15 14 15 15 14 14 14 13 13 13 13 13 13 12 13 13 13 13 12 12 11 11
18 18 18 17 16 15 14 15 16 16 16 16 16 15 15 15 14 14 14 14 13 13 13 13 13 13 13 13 13 12 12 12 11
18 18 18 17 17 16 15 16 17 17 17 17 16 15 15 15 15 15 15 14 14 14 13 13 13 13 13 13 13 13 13 12 12
18 17 17 17 17 17 16 15 17 18 17 17 17 16 16 16 16 16 16 15 15 14 14 13 13 14 14 14 13 14 13 13 13
16 15 16 16 16 16 16 15 17 18 17 17 17 17 17 17 16 16 15 15 15 14 14 14 13 13 14 14 14 14 14 14 13
15 15 15 15 15 15 17 18 18 18 18 18 17 17 17 17 16 16 16 16 15 15 15 15 14 14 14 14 14 14 14 14 14
14 14 15 15 15 15 17 18 18 18 18 17 18 18 18 17 17 17 17 16 16 16 16 15 15 14 14 14 14 15 14 14 14
14 16 16 15 16 16 16 16 16 17 18 18 18 18 18 18 17 17 17 17 17 16 16 16 15 15 14 14 15 15 15 14 14
14 14 15 15 16 16 16 16 15 15 17 18 18 18 19 18 18 18 17 17 17 17 17 16 16 16 15 16 16 15 15 15 15
14 14 14 15 15 15 15 16 16 17 17 18 18 18 19 18 19 18 18 17 17 17 17 17 16 16 16 16 16 16 16 15 15
14 14 15 14 14 15 16 16 17 17 17 17 18 18 18 19 19 19 18 18 17 17 17 16 16 16 16 16 16 16 16 16 15
14 14 15 15 15 16 16 16 17 17 17 17 18 18 18 18 19 19 18 18 17 17 17 17 17 17 16 16 17 17 17 17 16
14 13 14 15 15 16 16 16 17 17 17 17 17 17 18 18 18 18 18 18 17 17 17 17 17 17 17 17 17 17 17 17 17
13 14 14 15 15 16 16 16 17 17 17 17 17 17 17 18 18 18 18 18 18 18 18 18 18 18 18 17 17 17 17 17 17
13 13 14 15 15 15 16 16 17 17 17 17 17 17 17 17 17 17 18 17 17 17 17 17 17 17 17 17 16 17 16 16 16
12 14 14 14 15 15 16 16 16 17 17 17 17 17 17 17 17 17 17 17 17 17 17 17 17 16 16 16 16 16 15 15 15
12 12 13 13 14 15 15 16 16 16 16 17 17 17 17 17 17 16 16 17 17 16 16 16 16 16 15 15 15 15 14 14 14
Height
3132 3136 3139 3143 3145 3147 3151 3155 3158 3161 3164 3169 3173 3178 3182 3186 3190 3193 3196 3198 3201 3203 3204 3206 3207 3208 3209 3212 3215 3218 3220 3221 3223
3124 3129 3134 3137 3140 3143 3146 3150 3154 3158 3161 3166 3169 3174 3178 3181 3185 3188 3191 3194 3197 3199 3201 3203 3204 3205 3207 3209 3211 3214 3217 3219 3221
3118 3123 3128 3131 3135 3138 3141 3145 3149 3154 3158 3161 3165 3169 3173 3177 3181 3184 3187 3190 3192 3195 3197 3200 3201 3202 3204 3206 3208 3210 3213 3215 3217
3112 3118 3122 3127 3129 3133 3136 3140 3144 3148 3152 3156 3160 3164 3167 3171 3174 3178 3182 3184 3188 3190 3194 3196 3197 3198 3200 3202 3204 3207 3209 3212 3213
3107 3113 3118 3123 3127 3131 3134 3134 3138 3141 3146 3150 3154 3158 3163 3166 3170 3173 3176 3178 3182 3186 3188 3191 3194 3194 3196 3197 3200 3202 3205 3207 3209
3103 3110 3114 3119 3124 3126 3128 3131 3133 3136 3139 3144 3148 3152 3157 3161 3164 3166 3169 3172 3177 3181 3183 3186 3188 3189 3190 3192 3195 3197 3200 3203 3205
3100 3104 3109 3115 3120 3124 3126 3127 3129 3132 3135 3138 3142 3146 3150 3154 3158 3161 3165 3168 3172 3175 3177 3180 3182 3183 3185 3187 3189 3191 3194 3197 3199
3097 3099 3103 3107 3111 3116 3120 3123 3124 3128 3131 3134 3137 3140 3144 3147 3152 3156 3160 3163 3166 3170 3171 3174 3177 3178 3179 3181 3182 3184 3187 3189 3192
3094 3096 3100 3104 3107 3108 3111 3116 3121 3123 3126 3129 3132 3134 3137 3141 3147 3150 3153 3157 3160 3164 3165 3167 3169 3170 3172 3174 3176 3178 3180 3184 3186
3090 3093 3096 3099 3102 3104 3106 3110 3113 3117 3121 3123 3126 3128 3130 3134 3139 3142 3146 3150 3152 3155 3158 3161 3163 3165 3167 3168 3170 3173 3175 3177 3179
3083 3086 3090 3093 3097 3101 3103 3106 3109 3111 3112 3117 3120 3122 3124 3127 3131 3135 3139 3143 3144 3148 3151 3154 3156 3158 3160 3162 3163 3166 3168 3170 3172
3077 3080 3083 3087 3091 3095 3098 3100 3103 3104 3105 3110 3114 3116 3118 3119 3122 3126 3130 3134 3137 3140 3143 3145 3147 3149 3152 3154 3156 3158 3160 3162 3161
3071 3075 3078 3081 3083 3086 3089 3091 3095 3096 3099 3102 3106 3111 3112 3114 3115 3118 3122 3127 3131 3133 3136 3137 3139 3141 3143 3145 3147 3150 3152 3153 3153
3059 3061 3064 3068 3071 3073 3078 3083 3086 3089 3093 3095 3101 3102 3104 3107 3108 3111 3115 3119 3123 3126 3128 3129 3131 3132 3134 3136 3138 3138 3141 3143 3142
3054 3055 3058 3061 3064 3067 3071 3075 3079 3082 3086 3091 3090 3093 3096 3098 3100 3103 3107 3111 3114 3116 3118 3120 3122 3124 3125 3126 3128 3129 3128 3129 3130
3048 3049 3051 3054 3057 3060 3064 3067 3070 3074 3079 3081 3082 3085 3088 3090 3093 3095 3099 3102 3105 3107 3109 3110 3113 3114 3115 3116 3117 3117 3117 3117 3118
3042 3043 3045 3046 3049 3053 3056 3059 3062 3066 3069 3073 3076 3079 3081 3083 3085 3088 3091 3094 3096 3098 3100 3103 3104 3104 3105 3105 3104 3103 3105 3104 3106
3035 3036 3037 3040 3042 3046 3049 3053 3054 3057 3062 3066 3069 3072 3075 3077 3080 3081 3083 3085 3087 3089 3091 3092 3093 3094 3094 3094 3093 3095 3093 3093 3092
3029 3031 3032 3034 3036 3040 3043 3045 3047 3051 3055 3059 3062 3065 3068 3070 3072 3074 3075 3077 3079 3080 3081 3083 3084 3085 3083 3083 3081 3082 3081 3081 3079
3023 3025 3027 3028 3030 3033 3036 3039 3042 3043 3046 3050 3053 3056 3059 3061 3064 3065 3066 3068 3069 3070 3071 3072 3072 3071 3072 3071 3071 3069 3068 3066 3066
Wind_Speed
29 27 27 32 33 33 27 22 23 26 30 32 32 30 28 26 27 26 23 22 20 19 18 16 17 14 17 20 25 23 19 17 13
30 29 27 31 33 34 26 27 24 22 25 28 30 28 27 26 25 28 27 23 21 20 19 18 18 17 18 22 27 27 23 21 17
34 30 27 29 32 32 25 26 22 23 24 21 25 27 27 26 24 26 27 24 24 24 22 19 20 18 20 23 27 28 27 26 22
29 28 29 29 31 30 26 28 31 25 22 21 23 22 23 25 26 26 28 27 26 26 23 23 23 21 22 22 27 29 29 28 26
32 29 28 29 29 28 30 31 30 29 27 26 24 24 21 22 25 29 29 29 28 28 28 26 24 25 23 25 27 31 31 30 29
25 27 25 28 27 28 28 27 25 29 31 29 29 30 27 24 24 24 27 31 33 32 31 31 29 29 27 26 26 29 33 32 33
22 24 25 27 27 27 27 28 23 27 31 33 35 34 33 31 28 24 22 22 23 28 30 30 28 29 29 28 28 28 30 33 33
14 12 19 30 30 28 30 31 27 20 24 30 33 36 36 34 29 29 29 27 24 24 25 25 25 25 26 28 30 31 30 32 36
13 13 14 14 12 23 31 34 28 25 21 22 24 32 38 37 34 33 31 30 30 29 29 28 29 28 28 27 29 31 31 31 35
13 14 13 14 14 17 24 28 30 26 24 21 23 22 34 42 41 39 36 34 33 33 33 35 34 34 34 32 30 28 30 33 33
16 20 22 20 16 17 20 20 23 29 31 28 25 23 25 35 43 42 45 40 39 38 39 40 41 41 41 38 33 32 30 33 35
22 19 18 20 21 22 23 22 23 26 37 34 30 27 25 29 38 45 44 43 43 42 43 44 43 43 42 40 36 34 34 33 37
18 18 17 17 20 22 25 30 31 34 37 37 35 30 28 28 36 41 44 45 45 42 38 38 43 45 46 41 37 37 35 36 39
26 27 28 27 27 29 29 30 34 33 32 35 32 34 32 32 32 40 41 41 39 39 40 41 43 42 43 43 43 43 42 40 43
30 30 28 28 27 28 26 26 33 30 31 30 33 34 33 32 32 35 44 44 44 44 43 42 42 39 37 36 36 37 39 45 47
24 24 29 32 30 32 27 27 34 33 26 30 29 29 30 29 30 29 38 46 44 43 43 41 41 42 40 41 40 39 37 40 46
27 24 23 30 35 33 32 27 30 33 29 28 27 29 27 28 30 32 33 36 39 41 42 42 39 42 43 41 40 41 39 40 46
18 19 22 24 30 32 33 28 28 35 30 29 30 28 28 28 27 28 30 32 33 35 35 33 34 33 32 32 34 35 39 46 51
24 19 19 22 26 28 30 28 24 31 32 30 29 29 26 28 30 32 31 31 30 31 30 30 30 31 34 36 39 40 40 41 47
36 34 27 24 24 27 30 27 23 26 33 33 33 33 33 31 29 30 29 30 32 33 34 36 37 39 40 43 47 48 47 48 49
Wind_Direction
212 211 208 211 208 209 212 218 218 217 216 214 216 220 219 219 218 220 225 227 234 240 244 242 241 231 234 220 213 211 208 203 202
209 211 208 207 209 208 213 218 219 222 222 220 223 227 227 225 224 225 227 230 236 242 242 244 243 247 240 226 218 215 217 214 215
210 210 210 208 204 207 213 218 221 219 221 223 225 227 228 229 229 226 226 231 236 242 242 242 251 246 248 235 224 221 222 221 222
204 204 209 204 203 208 212 212 215 218 212 212 214 218 221 224 225 227 228 233 237 239 242 244 245 246 244 240 232 229 227 226 230
206 206 207 204 205 204 208 213 214 218 221 221 218 220 220 223 228 229 230 233 236 236 242 244 243 249 244 243 236 234 233 230 236
195 200 203 203 203 206 206 213 219 223 224 226 224 225 227 223 219 220 226 232 237 240 243 249 247 244 247 245 244 240 238 238 238
188 195 196 202 206 211 216 216 229 227 227 225 223 224 225 223 216 216 222 228 226 231 236 239 241 243 245 248 248 246 241 240 240
172 186 206 210 211 210 210 221 235 236 228 234 232 230 227 230 221 220 223 229 231 230 233 236 241 245 246 246 246 247 245 241 240
213 206 198 203 218 219 225 233 232 228 226 232 235 236 235 232 229 227 228 231 236 237 242 246 246 250 250 251 249 249 248 248 247
227 228 231 235 229 224 214 213 215 222 226 225 240 253 237 231 231 233 233 233 237 240 244 246 249 251 254 254 256 254 252 249 250
251 238 232 236 231 224 214 221 230 220 226 230 240 248 251 237 234 236 236 235 239 242 241 246 247 248 251 256 259 255 253 250 250
256 252 246 243 234 227 223 220 226 220 229 234 235 246 257 248 235 235 236 235 239 244 246 248 252 253 255 259 261 259 253 249 247
252 258 253 246 239 230 233 236 232 229 234 240 243 246 252 254 240 237 239 239 241 243 243 246 248 250 253 256 259 260 260 255 250
227 223 218 219 227 223 222 229 228 231 235 241 247 243 245 249 250 241 237 234 231 235 243 248 250 252 253 254 257 261 262 259 257
235 239 230 224 226 224 221 223 227 233 239 243 242 242 244 247 246 246 236 235 234 241 244 247 246 248 253 256 261 264 266 258 255
240 245 239 229 230 224 228 229 228 229 238 238 239 240 244 246 243 242 240 239 241 242 247 248 248 260 264 273 274 270 273 265 260
249 257 250 235 230 229 229 233 233 229 235 240 244 242 242 243 242 242 243 244 246 248 252 255 260 264 269 273 269 270 269 262 258
249 262 254 245 237 236 235 235 231 221 224 231 236 240 243 246 248 249 251 252 255 257 256 259 263 268 269 271 273 277 267 265 262
269 269 270 250 240 240 234 237 237 225 224 229 231 234 243 247 248 251 253 255 256 259 263 266 267 269 274 275 276 276 275 269 265
268 272 275 258 249 241 236 239 243 234 229 230 232 238 241 245 247 249 252 256 257 261 268 273 277 275 278 280 281 280 276 269 262